Salisbury, MD

9:56 AM EDT on April 27, 2017 (GMT -0400)
Salisbury-Ocean City Wicomico Regional

Weather History for KSBY - April, 2014

Change the Weather History Date:

Saturday, April 12, 2014

  Actual Average Record
Temperature  
Mean Temperature 64 °F 53 °F  
Max Temperature 77 °F 64 °F 85 °F (1977)
Min Temperature 51 °F 42 °F 27 °F (1989)
Degree Days  
Heating Degree Days 1 12  
Month to date heating degree days 110 167  
Since 1 July heating degree days 3939 4102  
Cooling Degree Days 0 0  
Month to date cooling degree days 3 0  
Year to date cooling degree days 3 2  
Growing Degree Days 14 (Base 50)    
Moisture  
Dew Point 44 °F    
Average Humidity 54    
Maximum Humidity 89    
Minimum Humidity 18    
Precipitation  
Precipitation 0.00 in 0.13 in 1.37 in (1933)
Month to date precipitation 0.22 1.58  
Year to date precipitation 6.77 12.96  
Snow  
Snow 0.00 in 0.00 in T in (1940)
Month to date snowfall 0.0 0.1  
Since 1 July snowfall 22.5 9.2  
Snow Depth 0.00 in    
Sea Level Pressure  
Sea Level Pressure 30.19 in    
Wind  
Wind Speed 6 mph (East)    
Max Wind Speed 15 mph    
Max Gust Speed 24 mph    
Visibility 10 miles    
Events      
T = Trace of Precipitation, MM = Missing Value Source: NWS Daily Summary

Daily Weather History Graph

Daily Weather History Graph

Search for Another Location

Airport or City:

Trip Planner

Search our weather history database for the weather conditions in past years. The results will help you decide how hot, cold, wet, or windy it might be!

Date:

Astronomy

Apr. 12, 2014 Rise Set
Actual Time 6:30 AM EDT 7:35 PM EDT
Civil Twilight 6:03 AM EDT 8:02 PM EDT
Nautical Twilight 5:31 AM EDT 8:35 PM EDT
Astronomical Twilight 4:57 AM EDT 9:08 PM EDT
Moon 5:13 PM EDT (4/12) 4:54 AM EDT (4/12)
Length of Visible Light 13h 59m
Length of Day
13h 05m
Waxing Gibbous, 93% of the Moon is Illuminated
Apr 12
Waxing Gibbous
Apr 15
Full
Apr 22
Last Quarter
Apr 29
New
May 6
First Quarter

Hourly Weather History & Observations

Time (EDT) Temp. Dew Point Humidity Pressure Visibility Wind Dir Wind Speed Gust Speed Precip Events Conditions
12:54 AM 57.9 °F 48.9 °F 72% 30.06 in 10.0 mi Calm Calm - N/A   Clear
1:54 AM 55.9 °F 48.0 °F 75% 30.05 in 10.0 mi Calm Calm - N/A   Clear
2:54 AM 55.9 °F 48.0 °F 75% 30.07 in 10.0 mi Calm Calm - N/A   Clear
3:54 AM 54.0 °F 48.0 °F 80% 30.09 in 10.0 mi Calm Calm - N/A   Clear
4:54 AM 54.0 °F 46.9 °F 77% 30.11 in 10.0 mi Calm Calm - N/A   Clear
5:54 AM 53.1 °F 46.9 °F 80% 30.14 in 10.0 mi Calm Calm - N/A   Scattered Clouds
6:54 AM 52.0 °F 48.0 °F 86% 30.17 in 10.0 mi NNW 4.6 mph - N/A   Clear
7:54 AM 62.1 °F 52.0 °F 70% 30.20 in 10.0 mi North 5.8 mph - N/A   Clear
8:54 AM 66.9 °F 52.0 °F 59% 30.22 in 10.0 mi North 10.4 mph - N/A   Clear
9:54 AM 68.0 °F 51.1 °F 55% 30.25 in 10.0 mi NNE 11.5 mph - N/A   Clear
10:54 AM 70.0 °F 45.0 °F 41% 30.27 in 10.0 mi NNE 5.8 mph - N/A   Clear
11:54 AM 72.0 °F 39.0 °F 30% 30.27 in 10.0 mi ENE 5.8 mph - N/A   Clear
12:54 PM 73.9 °F 33.1 °F 22% 30.25 in 10.0 mi East 6.9 mph - N/A   Clear
1:54 PM 73.9 °F 30.9 °F 21% 30.24 in 10.0 mi Calm Calm - N/A   Clear
2:54 PM 77.0 °F 30.9 °F 19% 30.21 in 10.0 mi Variable 4.6 mph - N/A   Clear
3:49 PM 73.4 °F 37.4 °F 27% 30.18 in 10.0 mi SE 11.5 mph - N/A   Clear
3:54 PM 73.0 °F 37.0 °F 27% 30.19 in 10.0 mi ESE 11.5 mph - N/A   Clear
4:54 PM 72.0 °F 35.1 °F 26% 30.17 in 10.0 mi SSE 11.5 mph - N/A   Clear
5:54 PM 69.1 °F 37.9 °F 32% 30.19 in 10.0 mi ESE 11.5 mph - N/A   Clear
6:54 PM 64.9 °F 48.0 °F 54% 30.22 in 10.0 mi SSE 8.1 mph - N/A   Clear
7:54 PM 60.1 °F 48.9 °F 67% 30.24 in 10.0 mi SE 8.1 mph - N/A   Clear
8:54 PM 57.0 °F 48.9 °F 74% 30.25 in 10.0 mi SSE 5.8 mph - N/A   Clear
9:54 PM 55.0 °F 48.9 °F 80% 30.22 in 10.0 mi SE 8.1 mph - N/A   Clear
10:54 PM 55.0 °F 48.9 °F 80% 30.21 in 10.0 mi ESE 5.8 mph - N/A   Clear
11:54 PM 54.0 °F 48.0 °F 80% 30.20 in 9.0 mi East 3.5 mph - N/A   Clear